Pellston, MI

2:44 AM EDT on September 20, 2017 (GMT -0400)
Pellston Regional Airport Of Emmet County

Weather History for KPLN - September, 2013

Change the Weather History Date:

Thursday, September 26, 2013

  Actual Average Record
Temperature  
Mean Temperature 52 °F -  
Max Temperature 73 °F 63 °F 83 °F (1973)
Min Temperature 30 °F 41 °F 21 °F (1955)
Degree Days  
Heating Degree Days 14    
Growing Degree Days 2 (Base 50)    
Moisture  
Dew Point 38 °F    
Average Humidity 85    
Maximum Humidity 100    
Minimum Humidity 33    
Precipitation  
Precipitation 0.00 in - - ()
Sea Level Pressure  
Sea Level Pressure 30.13 in    
Wind  
Wind Speed 1 mph (ESE)    
Max Wind Speed 7 mph    
Max Gust Speed -    
Visibility 6 miles    
Events Fog    
Averages and records for this station are not official NWS values.
T = Trace of Precipitation, MM = Missing Value Source: NWS Daily Summary

Daily Weather History Graph

Daily Weather History Graph

Search for Another Location

Airport or City:

Trip Planner

Search our weather history database for the weather conditions in past years. The results will help you decide how hot, cold, wet, or windy it might be!

Date:

Astronomy

Sep. 26, 2013 Rise Set
Actual Time 7:31 AM EDT 7:28 PM EDT
Civil Twilight 7:01 AM EDT 7:58 PM EDT
Nautical Twilight 6:27 AM EDT 8:32 PM EDT
Astronomical Twilight 5:51 AM EDT 9:07 PM EDT
Moon No Moon Rise 2:38 PM EDT (9/26)
Length of Visible Light 12h 56m
Length of Day
11h 57m
Waning Gibbous, 55% of the Moon is Illuminated
Sep 26
Waning Gibbous
Sep 26
Last Quarter
Oct 4
New
Oct 11
First Quarter
Oct 18
Full

Hourly Weather History & Observations

Time (EDT) Temp. Windchill Dew Point Humidity Pressure Visibility Wind Dir Wind Speed Gust Speed Precip Events Conditions
12:54 AM 36.0 °F - 35.1 °F 97% 30.06 in 10.0 mi Calm Calm - N/A   Clear
1:54 AM 35.1 °F - 33.1 °F 92% 30.07 in 10.0 mi Calm Calm - N/A   Clear
2:38 AM 33.8 °F - 32.0 °F 93% 30.07 in 10.0 mi Calm Calm - N/A   Partly Cloudy
2:54 AM 34.0 °F - 32.0 °F 92% 30.08 in 10.0 mi Calm Calm - N/A   Partly Cloudy
3:54 AM 33.1 °F - 30.9 °F 92% 30.09 in 10.0 mi Calm Calm - N/A   Scattered Clouds
4:05 AM 33.8 °F - 30.2 °F 87% 30.08 in 10.0 mi Calm Calm - N/A   Mostly Cloudy
4:16 AM 33.8 °F - 32.0 °F 93% 30.08 in 1.8 mi Calm Calm - N/A   Overcast
4:23 AM 33.8 °F - 33.8 °F 100% 30.09 in 0.2 mi Calm Calm - N/A Fog Fog
4:54 AM 34.0 °F - 33.1 °F 96% 30.11 in 0.2 mi Calm Calm - N/A Fog Fog
5:09 AM 33.8 °F - 33.8 °F 100% 30.10 in 1.0 mi Calm Calm - N/A   Mist
5:31 AM 33.8 °F - 32.0 °F 93% 30.11 in 0.2 mi Calm Calm - N/A Fog Fog
5:54 AM 33.1 °F - 33.1 °F 100% 30.12 in 0.2 mi Calm Calm - N/A Fog Fog
6:08 AM 33.8 °F - 32.0 °F 93% 30.11 in 1.0 mi Calm Calm - N/A   Mist
6:14 AM 32.0 °F - 30.2 °F 93% 30.11 in 3.0 mi Calm Calm - N/A   Mostly Cloudy
6:24 AM 30.2 °F - 30.2 °F 100% 30.12 in 7.0 mi Calm Calm - N/A   Scattered Clouds
6:37 AM 30.2 °F - 30.2 °F 100% 30.12 in 10.0 mi Calm Calm - N/A   Mostly Cloudy
6:54 AM 32.0 °F - 30.9 °F 96% 30.14 in 10.0 mi Calm Calm - N/A   Overcast
7:03 AM 30.2 °F - 30.2 °F 100% 30.13 in 1.8 mi Calm Calm - N/A   Overcast
7:27 AM 32.0 °F - 30.2 °F 93% 30.13 in 0.2 mi Calm Calm - N/A Fog Fog
7:41 AM 32.0 °F - 32.0 °F 100% 30.13 in 0.2 mi Calm Calm - N/A Fog Fog
7:54 AM 32.0 °F - 30.9 °F 96% 30.16 in 0.2 mi Calm Calm - N/A Fog Fog
8:04 AM 33.8 °F - 32.0 °F 93% 30.13 in 0.2 mi Calm Calm - N/A Fog Fog
8:40 AM 35.6 °F - 35.6 °F 100% 30.14 in 0.5 mi Calm Calm - N/A Fog Fog
8:52 AM 37.4 °F - 37.4 °F 100% 30.14 in 0.2 mi Calm Calm - N/A Fog Fog
8:54 AM 37.9 °F - 37.0 °F 97% 30.17 in 0.2 mi Calm Calm - N/A Fog Fog
9:54 AM 45.0 °F 43.5 °F 44.1 °F 97% 30.17 in 0.5 mi ESE 3.5 mph - N/A Fog Fog
9:59 AM 46.4 °F 45.2 °F 44.6 °F 93% 30.15 in 2.0 mi ESE 3.5 mph - N/A   Overcast
10:06 AM 46.4 °F 44.3 °F 46.4 °F 100% 30.14 in 9.0 mi SE 4.6 mph - N/A   Mostly Cloudy
10:16 AM 48.2 °F - 46.4 °F 93% 30.14 in 10.0 mi SE 3.5 mph - N/A   Scattered Clouds
10:54 AM 55.0 °F - 45.0 °F 69% 30.15 in 10.0 mi SE 5.8 mph - N/A   Clear
11:54 AM 62.1 °F - 46.9 °F 58% 30.15 in 10.0 mi ESE 5.8 mph - N/A   Clear
12:54 PM 66.0 °F - 44.1 °F 45% 30.15 in 10.0 mi South 5.8 mph - N/A   Clear
1:54 PM 69.1 °F - 43.0 °F 39% 30.14 in 10.0 mi SSE 6.9 mph - N/A   Clear
2:54 PM 71.1 °F - 44.1 °F 38% 30.12 in 10.0 mi East 6.9 mph - N/A   Clear
3:54 PM 73.0 °F - 43.0 °F 34% 30.13 in 10.0 mi East 6.9 mph - N/A   Clear
4:54 PM 73.9 °F - 43.0 °F 33% 30.13 in 10.0 mi ESE 5.8 mph - N/A   Clear
5:54 PM 71.1 °F - 50.0 °F 47% 30.13 in 10.0 mi ENE 6.9 mph - N/A   Clear
6:54 PM 66.9 °F - 50.0 °F 54% 30.14 in 10.0 mi ENE 3.5 mph - N/A   Clear
7:54 PM 55.9 °F - 50.0 °F 80% 30.15 in 10.0 mi Calm Calm - N/A   Clear
8:54 PM 51.1 °F - 48.9 °F 92% 30.16 in 10.0 mi Calm Calm - N/A   Clear
9:54 PM 48.0 °F - 46.0 °F 93% 30.16 in 10.0 mi Calm Calm - N/A   Clear
10:54 PM 45.0 °F - 43.0 °F 93% 30.17 in 8.0 mi Calm Calm - N/A   Clear
11:54 PM 43.0 °F - 41.0 °F 93% 30.17 in 8.0 mi Calm Calm - N/A   Clear